[[{"header":{"parameterUnit":"m.s-1","parameterCategory":1,"la1":30.2991,"la2":30.254,"lo1":-89.0895,"lo2":-89.0444,"dy":0.0017,"dx":0.0017,"nx":28,"ny":28,"refTime":"2024-05-25T09:00:00:Z","depth":0,"parameterNumber":2,"parameterNumberName":"U-component_of_WINDS"},"data":[0,0,0,0,0,0,0,0,0,0,0,0,0,0,0,0,0,0,0,0,0,0,0,0,0,0,0,0,0,0,0,0,0,0,0,0,0,0,0,0,0,0,0,0,0,0,0,0,0,0,0,0,0,0,0,0,0,0,2.3625,2.3625,0,2.3636,2.3636,2.3636,2.3582,2.358,2.3579,2.3577,2.3589,2.3591,2.3592,0,0,0,0,0,0,0,0,0,0,0,0,0,2.3554,2.3556,2.3625,2.3625,2.3625,2.3636,2.3636,2.3636,2.3582,2.358,2.3578,2.3576,2.3588,2.359,2.3592,0,0,0,0,0,0,0,0,0,0,0,0,0,2.3577,2.3556,2.3625,2.3599,2.3597,2.3636,2.3636,2.3636,2.3582,2.358,2.3578,2.3576,2.3587,2.359,2.3593,2.3657,0,0,2.3601,2.3602,0,0,0,0,0,0,0,0,2.3576,2.358,2.3603,2.3601,2.3599,2.3605,2.3616,2.3643,2.3583,2.3588,2.3577,2.3574,2.3596,2.3598,2.3605,2.3657,2.3658,2.3601,2.3603,2.3604,2.3605,0,0,0,0,0,0,0,2.3575,2.3579,2.3629,2.3603,2.3601,2.3587,2.3587,2.3621,2.3605,2.3587,2.3583,2.3586,2.3595,2.3603,2.3605,2.3658,2.3601,2.3603,2.3605,2.3606,2.376,2.3762,0,0,0,0,0,0,2.3576,2.3578,2.3629,2.363,2.3581,2.359,2.3591,2.3605,2.3605,2.3602,2.3588,2.3583,2.3599,2.3602,2.3605,2.3678,2.3604,2.3606,2.3608,2.3758,2.3761,2.3763,0,0,0,0,0,0,2.3575,2.3582,2.3628,2.3603,2.3608,2.3594,2.3611,2.3607,2.3615,2.3605,2.3602,2.3599,2.3598,2.3602,2.3644,2.3678,2.3608,2.361,2.3755,2.3758,2.3762,2.3825,0,0,0,0,0,0,2.3573,2.3581,2.3606,2.3604,2.3609,2.3667,2.3613,2.3609,2.362,2.3614,2.3615,2.3613,2.3596,2.364,2.3646,2.368,2.3612,2.3751,2.3756,2.3761,2.382,2.3831,2.384,0,0,0,0,0,2.3571,2.3624,2.3608,2.3614,2.364,2.3669,2.3672,2.3652,2.3623,2.3647,2.364,2.3613,2.3673,2.3645,2.3651,2.3687,2.3749,2.3755,2.376,2.3815,2.3828,2.3839,0,0,0,0,0,0,2.3631,2.3623,2.3605,2.3659,2.3665,2.366,2.369,2.3667,2.3682,2.3676,2.365,2.3651,2.3697,2.3696,2.3665,2.3747,2.3706,2.3713,2.3746,2.3758,2.3768,2.3766,2.3614,0,0,0,0,0,2.3651,2.3676,2.3667,2.3716,2.372,2.3705,2.3717,2.37,2.3706,2.3708,2.3704,2.3711,2.373,2.3744,2.3763,2.382,2.3818,2.3847,2.3857,2.3865,2.3871,2.3899,2.3911,2.3782,2.3782,2.3781,0,0,2.3692,2.369,2.3708,2.3728,2.3731,2.3756,2.3707,2.3737,2.3755,2.3713,2.3751,2.3749,2.3754,2.3803,2.3825,2.3804,2.3907,2.3872,2.3879,2.388,2.3906,2.3918,2.3929,2.3785,2.3785,2.3784,0,0,2.3778,2.3781,2.382,2.3823,2.3828,2.3817,2.3826,2.3824,2.3821,2.3859,2.3828,2.3849,2.3885,2.3889,2.3896,2.3982,2.3956,2.3989,2.4039,2.4067,2.4077,2.4086,2.4114,2.4125,2.3995,2.3995,2.3995,0,2.3828,2.3865,2.3843,2.3873,2.3882,2.3845,2.3883,2.3888,2.3899,2.3905,2.3882,2.3925,2.3926,2.3974,2.3995,2.4003,2.4011,2.3988,2.4077,2.4086,2.4094,2.4121,2.4132,2.3999,2.3998,2.3998,2.3998,0,2.3925,2.3951,2.3982,2.3992,2.4004,2.4039,2.4021,2.4037,2.4019,2.4011,2.4049,2.4049,2.4065,2.4076,2.406,2.4122,2.4108,2.4082,2.404,2.411,2.4135,2.4145,2.4004,2.4003,2.4002,2.4001,0,0,2.4049,2.4045,2.4057,2.406,2.4061,2.4081,2.4113,2.4129,2.4141,2.415,2.4175,2.4206,2.418,2.4188,2.4172,2.4196,2.4261,2.4166,2.4166,2.4182,2.4327,2.4345,2.4358,2.4245,2.4247,2.4249,2.4326,0,2.4132,2.4186,2.4167,2.4222,2.4244,2.4209,2.4237,2.424,2.4233,2.4251,2.4243,2.4264,2.423,2.4234,2.4257,2.4249,2.429,2.4243,2.4267,2.4268,2.4265,2.4371,2.4391,2.4463,2.4335,2.4337,2.4338,0,2.4236,2.4246,2.4304,2.4299,2.4308,2.4334,2.4345,2.4363,2.4366,2.4358,2.4366,2.4345,2.4375,2.4334,2.4375,2.4343,2.4352,2.435,2.4352,2.4352,2.4306,2.4371,2.4486,2.4496,2.4354,2.4352,2.4351,0,2.4317,2.4347,2.4384,2.4388,2.4385,2.4403,2.4402,2.4403,2.4413,2.4423,2.4428,2.4443,2.445,2.4461,2.4443,2.4415,2.4485,2.4443,2.4479,2.4479,2.4494,2.4493,2.4609,2.4503,2.4503,2.4503,2.4502,0,2.441,2.4446,2.4421,2.4444,2.4482,2.4459,2.4498,2.4493,2.4494,2.4514,2.4485,2.4505,2.4481,2.4499,2.4485,2.452,2.4524,2.4518,2.4513,2.4519,2.452,2.4523,2.4517,2.4505,2.4505,2.4504,2.4504,0,2.4508,2.4492,2.453,2.4523,2.4522,2.4551,2.4544,2.4565,2.4555,2.4582,2.4587,2.4571,2.459,2.4574,2.4593,2.4583,2.4628,2.4618,2.4627,2.4623,2.4658,2.4654,2.478,2.4794,2.4681,2.4682,2.4683,0,2.4567,2.4593,2.4589,2.46,2.4601,2.462,2.4629,2.4607,2.4618,2.4622,2.4642,2.4658,2.467,2.4702,2.4692,2.4706,2.4694,2.4737,2.4696,2.47,2.4692,2.469,2.4691,2.4745,2.4746,2.4747,2.4748,0,2.4672,2.4663,2.4677,2.4689,2.4701,2.4709,2.4715,2.4726,2.4703,2.4717,2.4735,2.4744,2.4763,2.4779,2.4789,2.4788,2.4764,2.4762,2.477,2.4775,2.4778,2.4775,2.4647,2.4758,2.4757,2.4757,2.4756,2.4756,2.4751,2.4771,2.4771,2.4787,2.4789,2.4795,2.4813,2.4805,2.482,2.4832,2.4819,2.4841,2.4842,2.4853,2.4855,2.4871,2.4853,2.4866,2.4869,2.4872,2.4876,2.4778,2.4873,2.4873,2.4873,2.4872,2.4872,0,2.4852,2.485,2.4865,2.4874,2.4886,2.4863,2.4868,2.488,2.4899,2.4902,2.4914,2.4934,2.4949,2.4941,2.4953,2.4968,2.4957,2.4972,2.4969,2.4969,2.4892,2.4882,2.498,2.498,2.498,2.498,2.498,2.498,2.4907,2.494,2.493,2.4963,2.4961,2.4981,2.4986,2.4991,2.4992,2.5016,2.5028,2.5022,2.502,2.5032,2.5045,2.5042,2.5047,2.5065,2.5058,2.4986,2.4975,2.4965,2.4955,2.5067,2.5067,2.5133,2.5134,2.5134]},{"header":{"parameterUnit":"m.s-1","parameterCategory":1,"la1":30.2991,"la2":30.254,"lo1":-89.0895,"lo2":-89.0444,"dy":0.0017,"dx":0.0017,"nx":28,"ny":28,"refTime":"2024-05-25T09:00:00:Z","depth":0,"parameterNumber":3,"parameterNumberName":"V-component_of_WINDS"},"data":[0,0,0,0,0,0,0,0,0,0,0,0,0,0,0,0,0,0,0,0,0,0,0,0,0,0,0,0,0,0,0,0,0,0,0,0,0,0,0,0,0,0,0,0,0,0,0,0,0,0,0,0,0,0,0,0,0,0,4.2214,4.2215,0,4.2286,4.2287,4.2288,4.2242,4.224,4.2238,4.2236,4.2305,4.2308,4.2312,0,0,0,0,0,0,0,0,0,0,0,0,0,4.2028,4.2032,4.2214,4.2215,4.2216,4.2286,4.2287,4.2288,4.2242,4.224,4.2237,4.2235,4.2303,4.2308,4.2313,0,0,0,0,0,0,0,0,0,0,0,0,0,4.2106,4.2033,4.2214,4.2201,4.2201,4.2286,4.2287,4.2288,4.2243,4.224,4.2237,4.2234,4.2302,4.2308,4.2313,4.2413,0,0,4.2331,4.2333,0,0,0,0,0,0,0,0,4.2101,4.2112,4.2202,4.2202,4.2202,4.2252,4.2247,4.233,4.2244,4.2227,4.2236,4.2232,4.2289,4.2296,4.2316,4.2416,4.2419,4.2331,4.2335,4.2337,4.2339,0,0,0,0,0,0,0,4.2096,4.2109,4.2242,4.2204,4.2204,4.219,4.2197,4.2263,4.2275,4.2228,4.2225,4.2234,4.2289,4.2311,4.2318,4.242,4.2331,4.2336,4.234,4.2342,4.2601,4.2604,0,0,0,0,0,0,4.2093,4.2105,4.224,4.2245,4.2143,4.2196,4.2204,4.2239,4.2274,4.2277,4.2237,4.2232,4.2303,4.2311,4.232,4.2437,4.2337,4.2342,4.2346,4.2598,4.2602,4.2606,0,0,0,0,0,0,4.2089,4.2105,4.2237,4.2174,4.219,4.2203,4.2242,4.2242,4.2265,4.2281,4.2282,4.2258,4.2301,4.2312,4.239,4.2439,4.2345,4.235,4.2594,4.2599,4.2604,4.2673,0,0,0,0,0,0,4.2084,4.2104,4.2144,4.2175,4.2193,4.2308,4.2245,4.2246,4.2275,4.2269,4.2301,4.2303,4.2299,4.2381,4.2395,4.2445,4.2355,4.2589,4.2596,4.2602,4.2666,4.268,4.2691,0,0,0,0,0,4.2077,4.216,4.2146,4.2163,4.2244,4.2311,4.2321,4.2316,4.228,4.2318,4.2328,4.2302,4.2431,4.239,4.2405,4.2457,4.2586,4.2594,4.2602,4.2661,4.2677,4.2691,0,0,0,0,0,0,4.2133,4.2164,4.2149,4.2245,4.2276,4.2303,4.2352,4.2334,4.2375,4.2367,4.2357,4.2365,4.2445,4.2459,4.2412,4.2553,4.2502,4.2514,4.2542,4.2558,4.257,4.2565,4.236,0,0,0,0,0,4.2156,4.2211,4.2234,4.2316,4.2332,4.234,4.2369,4.2362,4.2393,4.2405,4.2421,4.2451,4.2497,4.2528,4.2572,4.2668,4.2673,4.2711,4.2723,4.2734,4.2743,4.2792,4.2809,4.2631,4.2631,4.2631,0,0,4.2205,4.2229,4.2264,4.2328,4.2351,4.2405,4.2351,4.2411,4.245,4.2414,4.2488,4.2501,4.2532,4.2619,4.2658,4.2633,4.2793,4.2743,4.2752,4.2756,4.2802,4.2819,4.2833,4.2636,4.2635,4.2634,0,0,4.2322,4.2346,4.2416,4.2441,4.2477,4.2481,4.2497,4.2527,4.2535,4.2609,4.2583,4.2628,4.2709,4.2732,4.2755,4.2877,4.2854,4.2892,4.2957,4.3005,4.3019,4.3031,4.3073,4.3089,4.2901,4.2902,4.2902,0,4.2378,4.246,4.2454,4.2516,4.2543,4.2514,4.2583,4.2606,4.2654,4.2673,4.2645,4.2745,4.2764,4.2855,4.2884,4.2904,4.2921,4.2888,4.3018,4.303,4.3041,4.3081,4.3097,4.2906,4.2905,4.2905,4.2904,0,4.2526,4.2583,4.2634,4.2683,4.2716,4.2781,4.2783,4.2817,4.2807,4.2813,4.2887,4.291,4.2957,4.2977,4.2968,4.3066,4.3049,4.3019,4.2968,4.3063,4.31,4.3115,4.2912,4.291,4.2909,4.2908,0,0,4.268,4.2724,4.2743,4.2763,4.28,4.2842,4.2905,4.2952,4.298,4.3014,4.3064,4.3133,4.3105,4.313,4.3122,4.3165,4.3258,4.3129,4.313,4.3151,4.3365,4.3386,4.3404,4.3243,4.3246,4.3248,4.3362,0,4.2798,4.2909,4.2904,4.3007,4.3058,4.303,4.3083,4.311,4.3117,4.3159,4.3166,4.3214,4.3175,4.319,4.323,4.3238,4.33,4.323,4.3287,4.3289,4.328,4.3424,4.3448,4.3554,4.3376,4.3379,4.3381,0,4.2951,4.299,4.3098,4.3125,4.3146,4.3195,4.3237,4.3279,4.3307,4.3308,4.3336,4.3321,4.3381,4.3328,4.3409,4.3361,4.3384,4.3391,4.3395,4.34,4.3341,4.3431,4.3588,4.3604,4.3404,4.3402,4.34,0,4.3051,4.3131,4.3205,4.3224,4.3257,4.3292,4.3307,4.3333,4.3361,4.3396,4.3414,4.3455,4.3478,4.3509,4.3504,4.3467,4.3586,4.3533,4.3587,4.3588,4.3614,4.3612,4.3775,4.363,4.363,4.363,4.3629,0,4.3182,4.3249,4.325,4.3296,4.3369,4.3362,4.3433,4.3444,4.3467,4.3512,4.349,4.3532,4.3524,4.3566,4.3562,4.3628,4.3639,4.364,4.3638,4.3642,4.3642,4.3656,4.3649,4.3634,4.3633,4.3632,4.3631,0,4.3306,4.331,4.3389,4.3415,4.3422,4.3475,4.3495,4.3537,4.3541,4.3599,4.3612,4.3618,4.3666,4.3664,4.3718,4.3715,4.3797,4.3787,4.3788,4.3785,4.3839,4.3834,4.4017,4.4039,4.388,4.3882,4.3883,0,4.339,4.3441,4.3471,4.3501,4.3519,4.3566,4.3595,4.3588,4.3618,4.3654,4.3691,4.3736,4.3773,4.385,4.3858,4.3898,4.3888,4.3949,4.3894,4.3895,4.3887,4.3884,4.3888,4.396,4.3962,4.3963,4.3965,0,4.3537,4.3536,4.3579,4.3622,4.3657,4.369,4.372,4.3745,4.3742,4.3776,4.3825,4.3854,4.3908,4.3953,4.3992,4.4005,4.3984,4.3982,4.3996,4.4,4.3998,4.3999,4.3816,4.3978,4.3976,4.3975,4.3975,4.3974,4.3642,4.3685,4.3713,4.3761,4.3783,4.3812,4.3852,4.3861,4.3903,4.3948,4.3941,4.3995,4.402,4.4069,4.4086,4.4126,4.4104,4.4126,4.4131,4.4136,4.4142,4.3993,4.4133,4.4133,4.4133,4.4132,4.4132,0,4.3786,4.3803,4.3847,4.3891,4.3927,4.3906,4.3937,4.3969,4.4018,4.4043,4.408,4.4135,4.4178,4.4189,4.4229,4.426,4.4251,4.4271,4.4268,4.4271,4.416,4.4143,4.4277,4.4277,4.4277,4.4277,4.4277,4.4277,4.3866,4.3937,4.3939,4.402,4.4035,4.4089,4.4109,4.4134,4.4154,4.4218,4.4254,4.4261,4.428,4.4321,4.4359,4.4361,4.4376,4.44,4.4397,4.4293,4.4279,4.4265,4.4249,4.4403,4.4403,4.4505,4.4506,4.4506]}]]